Regional Weather Roundup
Issued by NWS Mt. Holly, NJ

Home | Current Version | Previous Version | Text Only | Print | Product List | Glossary On
Versions: 1 2 3 4 5 6 7 8 9 10 11 12 13 14 15 16 17 18 19 20 21 22 23 24 25 26 27
000
ASUS41 KPHI 221812
RWRPHI

REGIONAL WEATHER ROUNDUP
NATIONAL WEATHER SERVICE MOUNT HOLLY NJ
100 PM EST WED FEB 22 2017

NOTE:  "FAIR" INDICATES FEW OR NO CLOUDS BELOW 12,000 FEET WITH NO
SIGNIFICANT WEATHER AND/OR OBSTRUCTIONS TO VISIBILITY.

 * = STATION DOES NOT REPORT PRECIPITATION (E.G. RAIN, SNOW, ETC.)
        OR FOG.

NJZ015>026-221900-
SOUTHERN NEW JERSEY

CITY           SKY/WX    TMP DP  RH WIND       PRES   REMARKS
POMONA         PTSUNNY   58  48  69 W5        29.97F
6HR MIN TEMP:  41; 6HR MAX TEMP:  58;

WILDWOOD*      CLOUDY    52  48  86 SE6       29.98F
MILLVILLE      CLOUDY    53  48  83 S5        29.97F
WRIGHTSTOWN    PTSUNNY   55  43  65 VRB3      29.93F
MOUNT HOLLY    PTSUNNY   56  42  59 CALM      29.96F
TRENTON        CLOUDY    53  40  61 VRB3      29.96F
6HR MIN TEMP:  41; 6HR MAX TEMP:  53;


$$
NJZ001>014-221900-
NORTHERN NEW JERSEY

CITY           SKY/WX    TMP DP  RH WIND       PRES   REMARKS
SUSSEX         CLOUDY    50  40  68 SW6       29.93F
ANDOVER*         N/A     50  37  61 SW5       29.94F
MORRISTOWN     CLOUDY    52  37  58 CALM      29.96F
NEWARK         CLOUDY    52  37  56 W6        29.96F
TETERBORO      PTSUNNY   51  37  58 CALM      29.95F
CALDWELL       PTSUNNY   51  37  58 SE3       29.96F
SOMERVILLE     MOSUNNY   53  38  56 VRB3      29.93F
ALLAIRE*       PTSUNNY   51  42  71 SW8       29.98F
TOMS RIVER*    CLOUDY    57  45  64 W3        29.96

$$
PAZ043-044-047-054-055-060>062-066>071-221900-
EASTERN PENNSYLVANIA

CITY           SKY/WX    TMP DP  RH WIND       PRES   REMARKS
PHILADELPHIA   CLOUDY    55  42  61 VRB3      29.97F
6HR MIN TEMP:  42; 6HR MAX TEMP:  55; 6HR PCP: TRACE;

NORTH PHILA    PTSUNNY   54  42  64 SW5       29.98F
BLUE BELL*     CLOUDY    52  39  62 CALM      29.95F
DOYLESTOWN     PTSUNNY   55  40  56 CALM      29.94F
QUAKERTOWN*    PTSUNNY   55  39  54 S5        29.94F
PERKASIE*      FAIR      54  39  58 SW5       29.94F
POTTSTOWN      CLOUDY    54  39  57 S6        29.95F
LANCASTER      SUNNY    N/A N/A N/A MISG      29.94F
COATESVILLE    MOSUNNY   55  41  58 CALM      29.96F
READING        MOSUNNY   55  41  59 CALM      29.93F
6HR MIN TEMP:  42; 6HR MAX TEMP:  55;

ALLENTOWN      PTSUNNY   53  37  54 CALM      29.94F
6HR MIN TEMP:  40; 6HR MAX TEMP:  55;

MOUNT POCONO   CLOUDY    47  39  74 CALM      29.92F
6HR MIN TEMP:  38; 6HR MAX TEMP:  47; 6HR PCP: TRACE;

HAZLETON       CLOUDY    55  39  54 N5        29.95F
LEHIGHTON      FAIR      54  36  50 W3        29.95F
WILKES BARRE   CLOUDY    51  39  63 SW3       29.92F

$$
DEZALL-MDZ008-012-015-019-020-221900-
DELAWARE AND EASTERN MARYLAND

CITY           SKY/WX    TMP DP  RH WIND       PRES   REMARKS
WILMINGTON     CLOUDY    51  43  74 SE7       29.97F
6HR MIN TEMP:  40; 6HR MAX TEMP:  51;

DOVER          CLOUDY    56  53  89 SW8       29.95F
GEORGETOWN     CLOUDY    63  50  62 SW14      29.96F
6HR MIN TEMP:  42; 6HR MAX TEMP:  63;

EASTON         MOSUNNY   59  46  63 SW7       30.00F
ABERDEEN       CLOUDY    56  42  59 SE3       29.96F
PATUXENT       CLOUDY    50  47  89 S6        29.97F
OCEAN CITY     MOSUNNY   53  48  83 S6        29.99F
WALLOPS ISLAND CLOUDY    58  51  78 S7        29.99F
CAMBRIDGE      CLOUDY    57  48  72 MISG      29.97F
SALISBURY      CLOUDY    61  50  67 S8        29.97F

$$
PAZ001-021-NYZ056-072-MDZ011-DCZ001-221900-
OTHER NEARBY LOCATIONS

CITY           SKY/WX    TMP DP  RH WIND       PRES   REMARKS
HARRISBURG     CLOUDY    57  40  52 E3        29.93F
STATE COLLEGE  PTSUNNY   55  39  54 CALM      29.89F
WILLIAMSPORT   CLOUDY    53  35  50 E5        29.92F
BINGHAMTON     PTSUNNY   51  35  54 VRB5      29.87F
NEW YORK CITY  CLOUDY    51  37  58 VRB3      29.98F
BALTIMORE      CLOUDY    60  43  53 CALM      29.95F
WASHINGTON DC  CLOUDY    57  45  64 S7        29.96F

$$




USA.gov is the U.S. government's official web portal to all federal, state and local government web resources and services.